ARIANE 5 R/B, 41383

Orbit data source: Space-Track

ARIANE 5 R/B, 41383 is space debris in HEO originally from a launch on Wed, 09 Mar 2016 UTC launched from the French Guiana (FRGUI). Debris objects in space refer to the collection of defunct objects orbiting the Earth. Examples of debris include non-operational satellites, rocket bodies, and fragments generated from explosions, collisions, or faulty payload assembly.

Loading next visibility...
Identifier
41383, 2016-014B
Orbit
HEO
Last TLE update
21 hours ago
Origin
Manufacturer
Airbus Safran
Mission
Spacecraft
Bus & Motor
ESC-A, Unknown motor
Mass
~5,000 kg wet, ~5,000 kg dry
Launch date (UTC)
2016-03-09 (9 years ago)
Launch vehicle
Unknown
Launch site
French Guiana (FRGUI)
Object type
Payload
Rocket body
Debris
Shape & HBR
Cyl + 1 Nozzle, 7 m
Radar Cross Section
41.627 m², Large (>1 m²)

Expand to show TLE details & history

TLE from 21 hours ago
0 ARIANE 5 R/B
1 41383U 16014B   25181.24948873  .00004655  00000-0  63397-3 0  9994
2 41383   0.3605 197.5446 6577308 354.1632 138.4419  3.22864085 91166
Epoch: 2025-06-30T05:59Z
TLE epoch observation values (Epoch: 2025-06-30T05:59:15.826Z)
Latitude
0.10342°
Longitude
-8.37779°
Altitude
24,431.88 km
Speed
2.294 km/s
True Right ascension
00h 00m 00s
True Declination
0° 06' 12"
Sunlit
Object was in daylight at epoch
Visualization orbit readout
Latitude
0.22395°
Longitude
-32.53429°
Altitude
16,933.127 km
Speed
3.686 km/s
Apparent Right ascension
23h 01m 52s
Apparent Declination
-8° 43' 10"
Sunlit
Object is in daylight
Visualization observer readout
Local Sidereal Time
14:32:46
Azimuth
71.193° E
Elevation
-33.809°
Doppler factor
1
Orbital elements
Apogee altitude
25,686.228 km
Perigee altitude
242.145 km
Semi-major axis
19,342.323 km
Eccentricity
0.65773
Inclination
0.3605°
RAAN
197.5446°
Arg. of periapsis
354.1632°
True anomaly
Unknown
Mean anomaly
138.4419°
Eccentric anomaly
Unknown
Mean motion
0.80683 °/min
Orbital period
446.19 mins
BSTAR
0.00063397
Loading maneuver chart data...
Loading SW <> Apogee altitude chart data...
Loading historical data...
Loading historical data...
Loading historical data...
Loading historical data...
Loading historical data...
Loading historical data...
Loading historical data...
Other satellites on launch #14 in the year 2016 (2016-03-09 UTC)

ARIANE 5 R/B Visibility forecast

Observer location: undefined°, undefined°

Span
Click to sort rows by Start time (UTC) header in descending order
Start Az.
Max El. time (UTC)
Max El. Az.
Max El.
End time (UTC)
End Az.
381 mins2025-07-01 09:20:33.695Z217.949° SW2025-07-01 12:51:33.695Z166.63° S33.056°2025-07-01 15:41:33.695Z131.702° SE
|